| time (UTC) | temp F | wind direction | speed knots | gust knots | rain 1hr in | rain 24hr in | rain mn in | humidity % | barometer mb |
| 20260902110059 | 79 | 0 | 0.0 | 0.9 | 0.00 | 0.00 | 0.00 | 72 | 1012.4 |
| 20260902104604 | 79 | 0 | 0.0 | 0.9 | 0.00 | 0.00 | 0.00 | 71 | 1012.3 |
| 20260902103119 | 79 | 0 | 0.0 | 0.0 | 0.00 | 0.00 | 0.00 | 72 | 1012.3 |
| 20260902101558 | 79 | 0 | 0.0 | 0.9 | 0.00 | 0.00 | 0.00 | 71 | 1012.3 |
| 20260902100059 | 79 | 0 | 0.0 | 2.6 | 0.00 | 0.00 | 0.00 | 72 | 1012.3 |
| 20260902094601 | 79 | 0 | 0.0 | 1.7 | 0.00 | 0.00 | 0.00 | 72 | 1012.3 |
| 20260902093110 | 79 | 0 | 0.0 | 1.7 | 0.00 | 0.00 | 0.00 | 72 | 1012.1 |
| 20260902091559 | 79 | 0 | 0.0 | 0.9 | 0.00 | 0.00 | 0.00 | 73 | 1012.1 |
| 20260902084600 | 80 | 0 | 0.0 | 0.0 | 0.00 | 0.00 | 0.00 | 72 | 1012.0 |
| 20260902083055 | 80 | 0 | 0.0 | 0.9 | 0.00 | 0.00 | 0.00 | 72 | 1012.0 |
| 20260902081555 | 80 | 0 | 0.0 | 0.9 | 0.00 | 0.00 | 0.00 | 72 | 1012.0 |
| 20260902080053 | 80 | 0 | 0.0 | 0.0 | 0.00 | 0.00 | 0.00 | 72 | 1011.9 |
| 20260902074613 | 80 | 0 | 0.0 | 0.0 | 0.00 | 0.00 | 0.00 | 72 | 1012.0 |
| 20260902073056 | 81 | 0 | 0.0 | 0.9 | 0.00 | 0.00 | 0.00 | 72 | 1011.9 |
| 20260902071559 | 81 | 169 | 0.0 | 3.5 | 0.00 | 0.00 | 0.00 | 71 | 1011.9 |
| 20260902070103 | 81 | 0 | 0.0 | 1.7 | 0.00 | 0.00 | 0.00 | 72 | 1011.9 |
| 20260902064602 | 81 | 0 | 0.0 | 0.9 | 0.00 | 0.00 | 0.00 | 71 | 1012.0 |
| 20260902063057 | 81 | 0 | 0.0 | 0.9 | 0.00 | 0.00 | 0.00 | 71 | 1012.0 |
| 20260902061559 | 81 | 0 | 0.0 | 2.6 | 0.00 | 0.00 | 0.00 | 72 | 1012.0 |
| 20260902060104 | 81 | 185 | 0.0 | 1.7 | 0.00 | 0.00 | 0.00 | 72 | 1011.9 |
| 20260902054559 | 81 | 0 | 0.0 | 2.6 | 0.00 | 0.00 | 0.00 | 72 | 1011.9 |
| 20260902053106 | 81 | 0 | 0.0 | 3.5 | 0.00 | 0.00 | 0.00 | 72 | 1012.1 |
| 20260902051559 | 82 | 0 | 0.0 | 1.7 | 0.00 | 0.00 | 0.00 | 72 | 1012.1 |
| 20260902050100 | 82 | 0 | 0.0 | 0.9 | 0.00 | 0.00 | 0.00 | 71 | 1012.2 |
| 20260902044603 | 82 | 181 | 0.0 | 1.7 | 0.00 | 0.00 | 0.00 | 71 | 1012.3 |
| 20260902043109 | 83 | 0 | 0.0 | 1.7 | 0.00 | 0.00 | 0.00 | 70 | 1012.2 |
| 20260902041600 | 83 | 167 | 0.0 | 2.6 | 0.00 | 0.00 | 0.00 | 69 | 1012.2 |
| 20260902040105 | 84 | 0 | 0.0 | 2.6 | 0.00 | 0.00 | 0.00 | 67 | 1012.3 |
| 20260902034608 | 84 | 0 | 0.0 | 3.5 | 0.00 | 0.00 | 0.00 | 66 | 1012.5 |
| 20260902033105 | 85 | 0 | 0.0 | 1.7 | 0.00 | 0.00 | 0.00 | 66 | 1012.5 |
| 20260902031600 | 85 | 137 | 0.0 | 3.5 | 0.00 | 0.00 | 0.00 | 66 | 1012.5 |
| 20260902030103 | 85 | 0 | 0.0 | 2.6 | 0.00 | 0.00 | 0.00 | 66 | 1012.4 |
| 20260902024604 | 85 | 154 | 0.0 | 0.9 | 0.00 | 0.00 | 0.00 | 66 | 1012.3 |
| 20260902023104 | 85 | 0 | 0.0 | 1.7 | 0.00 | 0.00 | 0.00 | 66 | 1012.3 |
| 20260902021604 | 85 | 0 | 0.0 | 0.9 | 0.00 | 0.00 | 0.00 | 66 | 1012.5 |
| 20260902020105 | 86 | 0 | 0.0 | 0.0 | 0.00 | 0.00 | 0.00 | 66 | 1012.4 |
| 20260902014556 | 86 | 0 | 0.0 | 0.9 | 0.00 | 0.00 | 0.00 | 65 | 1012.2 |
| 20260902013100 | 87 | 148 | 0.0 | 2.6 | 0.00 | 0.00 | 0.00 | 64 | 1011.9 |
| 20260902011602 | 87 | 171 | 0.0 | 2.6 | 0.00 | 0.00 | 0.00 | 63 | 1011.6 |
| 20260902010059 | 88 | 139 | 0.0 | 2.6 | 0.00 | 0.00 | 0.00 | 62 | 1011.5 |
| 20260902004608 | 89 | 144 | 0.0 | 2.6 | 0.00 | 0.00 | 0.00 | 61 | 1011.4 |
| 20260902003106 | 90 | 177 | 0.0 | 2.6 | 0.00 | 0.00 | 0.00 | 57 | 1011.4 |
| 20260902001607 | 91 | 0 | 0.0 | 3.5 | 0.00 | 0.00 | 0.00 | 54 | 1011.6 |
| 20260902000058 | 93 | 0 | 0.0 | 1.7 | 0.00 | 0.00 | 0.00 | 51 | 1011.6 |
| 20260901234612 | 93 | 0 | 0.0 | 2.6 | 0.00 | 0.00 | 0.00 | 53 | 1011.6 |
| 20260901233105 | 93 | 180 | 0.0 | 2.6 | 0.00 | 0.00 | 0.00 | 53 | 1011.6 |
| 20260901231601 | 93 | 0 | 0.9 | 3.5 | 0.00 | 0.00 | 0.00 | 54 | 1011.6 |
| 20260901230059 | 93 | 0 | 0.0 | 2.6 | 0.00 | 0.00 | 0.00 | 55 | 1011.6 |
| 20260901224604 | 93 | 136 | 0.0 | 1.7 | 0.00 | 0.08 | 0.00 | 56 | 1011.4 |
| 20260901223059 | 93 | 0 | 0.0 | 1.7 | 0.00 | 0.08 | 0.00 | 55 | 1011.5 |
| 20260901221555 | 93 | 150 | 0.0 | 1.7 | 0.00 | 0.08 | 0.00 | 54 | 1011.5 |
| 20260901220118 | 93 | 217 | 0.0 | 1.7 | 0.00 | 0.08 | 0.00 | 54 | 1011.5 |
| 20260901214559 | 93 | 0 | 0.0 | 2.6 | 0.00 | 0.08 | 0.00 | 53 | 1011.6 |
| 20260901213104 | 93 | 0 | 0.0 | 3.5 | 0.00 | 0.08 | 0.00 | 56 | 1011.6 |
| 20260901211554 | 93 | 0 | 0.0 | 3.5 | 0.00 | 0.08 | 0.00 | 56 | 1011.7 |
| 20260901210100 | 94 | 293 | 0.0 | 3.5 | 0.00 | 0.08 | 0.00 | 56 | 1011.6 |
| 20260901204558 | 94 | 311 | 0.0 | 2.6 | 0.00 | 0.08 | 0.00 | 54 | 1011.8 |
| 20260901203103 | 94 | 146 | 0.0 | 2.6 | 0.00 | 0.08 | 0.00 | 56 | 1011.8 |
| 20260901201604 | 93 | 252 | 0.0 | 3.5 | 0.00 | 0.08 | 0.00 | 54 | 1011.8 |
| 20260901200104 | 93 | 124 | 0.9 | 3.5 | 0.00 | 0.08 | 0.00 | 56 | 1012.1 |
| 20260901194607 | 94 | 271 | 0.0 | 2.6 | 0.00 | 0.08 | 0.00 | 55 | 1012.1 |
| 20260901193114 | 94 | 222 | 0.0 | 3.5 | 0.00 | 0.08 | 0.00 | 54 | 1012.0 |
| 20260901191605 | 94 | 314 | 0.0 | 5.2 | 0.00 | 0.08 | 0.00 | 55 | 1012.0 |
| 20260901190100 | 93 | 162 | 0.0 | 3.5 | 0.00 | 0.08 | 0.00 | 56 | 1012.1 |
| 20260901184603 | 94 | 297 | 0.9 | 4.3 | 0.00 | 0.08 | 0.00 | 56 | 1012.3 |
| 20260901183103 | 94 | 0 | 0.9 | 3.5 | 0.00 | 0.08 | 0.00 | 54 | 1012.4 |
| 20260901181556 | 94 | 0 | 0.0 | 2.6 | 0.00 | 0.08 | 0.00 | 55 | 1012.6 |
| 20260901174600 | 93 | 290 | 0.0 | 7.8 | 0.00 | 0.08 | 0.00 | 58 | 1012.5 |
| 20260901173104 | 93 | 249 | 0.9 | 7.0 | 0.00 | 0.08 | 0.00 | 59 | 1012.7 |
| 20260901171601 | 92 | 135 | 0.0 | 4.3 | 0.00 | 0.08 | 0.00 | 62 | 1012.9 |
| 20260901170120 | 91 | 124 | 0.9 | 3.5 | 0.00 | 0.08 | 0.00 | 61 | 1012.9 |
| 20260901164607 | 91 | 165 | 0.0 | 3.5 | 0.00 | 0.08 | 0.00 | 61 | 1013.2 |
| 20260901163056 | 90 | 250 | 0.0 | 3.5 | 0.00 | 0.08 | 0.00 | 64 | 1013.2 |
| 20260901161602 | 88 | 152 | 0.0 | 4.3 | 0.00 | 0.08 | 0.00 | 65 | 1013.0 |
| 20260901154612 | 87 | 149 | 0.0 | 2.6 | 0.00 | 0.09 | 0.00 | 68 | 1013.0 |
| 20260901153103 | 85 | 0 | 0.0 | 2.6 | 0.00 | 0.09 | 0.00 | 70 | 1013.1 |
| 20260901151601 | 84 | 300 | 0.0 | 0.9 | 0.00 | 0.09 | 0.00 | 70 | 1013.1 |
| 20260901150110 | 83 | 0 | 0.0 | 2.6 | 0.00 | 0.09 | 0.00 | 71 | 1013.1 |
| 20260901144601 | 83 | 0 | 0.0 | 1.7 | 0.00 | 0.12 | 0.00 | 73 | 1013.2 |
| 20260901143059 | 82 | 0 | 0.9 | 2.6 | 0.00 | 0.12 | 0.00 | 73 | 1013.1 |
| 20260901141600 | 81 | 172 | 0.0 | 2.6 | 0.00 | 0.12 | 0.00 | 75 | 1013.0 |
| 20260901140109 | 80 | 0 | 0.0 | 0.9 | 0.00 | 0.12 | 0.00 | 77 | 1013.0 |
| 20260901134600 | 79 | 0 | 0.0 | 1.7 | 0.00 | 0.24 | 0.00 | 78 | 1012.9 |
| 20260901133105 | 78 | 0 | 0.0 | 0.0 | 0.00 | 0.24 | 0.00 | 79 | 1013.1 |
| 20260901131601 | 78 | 0 | 0.0 | 0.0 | 0.00 | 0.24 | 0.00 | 79 | 1013.3 |
| 20260901124606 | 77 | 0 | 0.0 | 0.0 | 0.00 | 0.25 | 0.00 | 81 | 1013.2 |
| 20260901123057 | 77 | 0 | 0.0 | 0.0 | 0.00 | 0.25 | 0.00 | 82 | 1013.1 |
| 20260901121606 | 77 | 0 | 0.0 | 0.0 | 0.00 | 0.25 | 0.00 | 82 | 1012.7 |
| 20260901120116 | 77 | 0 | 0.0 | 0.0 | 0.00 | 0.25 | 0.00 | 81 | 1012.6 |
| 20260901114559 | 76 | 0 | 0.0 | 0.0 | 0.00 | 0.25 | 0.00 | 81 | 1012.5 |
| 20260901113115 | 76 | 0 | 0.0 | 0.0 | 0.00 | 0.25 | 0.00 | 81 | 1012.3 |
| 20260901111600 | 76 | 0 | 0.0 | 0.0 | 0.00 | 0.25 | 0.00 | 81 | 1012.0 |